| time (UTC) | temp C | wind direction | speed KPH | gust KPH | rain 1hr cm | rain 24hr cm | rain mn cm | humidity % | barometer mb |
| 20260905055529 | 15 | 0 | 0.0 | 0.0 | 0.00 | 0.00 | 0.00 | 94 | 1010.6 |
| 20260905055032 | 15 | 0 | 0.0 | 0.0 | 0.00 | 0.00 | 0.00 | 94 | 1010.6 |
| 20260905054546 | 15 | 0 | 0.0 | 0.0 | 0.00 | 0.00 | 0.00 | 94 | 1010.5 |
| 20260905054028 | 15 | 0 | 0.0 | 0.0 | 0.00 | 0.00 | 0.00 | 94 | 1010.8 |
| 20260905053530 | 16 | 0 | 0.0 | 0.0 | 0.00 | 0.00 | 0.00 | 94 | 1010.8 |
| 20260905053054 | 16 | 0 | 0.0 | 0.0 | 0.00 | 0.00 | 0.00 | 93 | 1010.7 |
| 20260905052527 | 16 | 0 | 0.0 | 0.0 | 0.00 | 0.00 | 0.00 | 93 | 1010.7 |
| 20260905052027 | 16 | 0 | 0.0 | 0.0 | 0.00 | 0.00 | 0.00 | 92 | 1010.8 |
| 20260905051551 | 16 | 0 | 0.0 | 0.0 | 0.00 | 0.00 | 0.00 | 91 | 1010.9 |
| 20260905051026 | 16 | 0 | 0.0 | 0.0 | 0.00 | 0.00 | 0.00 | 91 | 1010.9 |
| 20260905050527 | 17 | 0 | 0.0 | 0.0 | 0.00 | 0.00 | 0.00 | 90 | 1010.8 |
| 20260905050048 | 17 | 0 | 0.0 | 0.0 | 0.00 | 0.00 | 0.00 | 90 | 1010.9 |
| 20260905045530 | 17 | 0 | 0.0 | 4.8 | 0.00 | 0.00 | 0.00 | 87 | 1010.9 |
| 20260905045029 | 17 | 0 | 0.0 | 4.8 | 0.00 | 0.00 | 0.00 | 88 | 1010.8 |
| 20260905044546 | 17 | 315 | 1.6 | 4.8 | 0.00 | 0.00 | 0.00 | 89 | 1010.8 |
| 20260905044028 | 17 | 16 | 0.0 | 6.4 | 0.00 | 0.00 | 0.00 | 90 | 1011.0 |
| 20260905043525 | 16 | 15 | 1.6 | 6.4 | 0.00 | 0.00 | 0.00 | 93 | 1010.9 |
| 20260905043051 | 16 | 348 | 0.0 | 1.6 | 0.00 | 0.00 | 0.00 | 95 | 1010.9 |
| 20260905042525 | 16 | 0 | 0.0 | 0.0 | 0.00 | 0.00 | 0.00 | 96 | 1010.8 |
| 20260905042027 | 16 | 0 | 0.0 | 0.0 | 0.00 | 0.00 | 0.00 | 96 | 1010.7 |
| 20260905041600 | 16 | 0 | 0.0 | 0.0 | 0.00 | 0.00 | 0.00 | 96 | 1010.8 |
| 20260905041029 | 16 | 0 | 0.0 | 0.0 | 0.00 | 0.00 | 0.00 | 96 | 1010.7 |
| 20260905040526 | 16 | 0 | 0.0 | 0.0 | 0.00 | 0.00 | 0.00 | 96 | 1010.5 |
| 20260905040048 | 16 | 0 | 0.0 | 0.0 | 0.00 | 0.00 | 0.00 | 96 | 1010.5 |
| 20260905035527 | 16 | 309 | 0.0 | 0.0 | 0.00 | 0.00 | 0.00 | 96 | 1010.4 |
| 20260905035029 | 16 | 0 | 0.0 | 0.0 | 0.00 | 0.00 | 0.00 | 95 | 1010.4 |
| 20260905034554 | 16 | 0 | 0.0 | 0.0 | 0.00 | 0.00 | 0.00 | 95 | 1010.6 |
| 20260905034024 | 16 | 0 | 0.0 | 0.0 | 0.00 | 0.00 | 0.00 | 95 | 1010.7 |
| 20260905033528 | 16 | 0 | 0.0 | 0.0 | 0.00 | 0.00 | 0.00 | 95 | 1010.8 |
| 20260905033044 | 16 | 0 | 0.0 | 0.0 | 0.00 | 0.00 | 0.00 | 95 | 1010.8 |
| 20260905032529 | 16 | 0 | 0.0 | 0.0 | 0.00 | 0.00 | 0.00 | 95 | 1010.8 |
| 20260905032027 | 16 | 0 | 0.0 | 0.0 | 0.00 | 0.00 | 0.00 | 95 | 1010.8 |
| 20260905031552 | 16 | 0 | 0.0 | 0.0 | 0.00 | 0.00 | 0.00 | 95 | 1010.8 |
| 20260905031028 | 16 | 0 | 0.0 | 0.0 | 0.00 | 0.00 | 0.00 | 95 | 1011.0 |
| 20260905030526 | 16 | 0 | 0.0 | 0.0 | 0.00 | 0.00 | 0.00 | 95 | 1010.9 |
| 20260905030046 | 16 | 0 | 0.0 | 0.0 | 0.00 | 0.00 | 0.00 | 95 | 1010.9 |
| 20260905025528 | 16 | 0 | 0.0 | 0.0 | 0.00 | 0.00 | 0.00 | 95 | 1011.0 |
| 20260905025026 | 16 | 0 | 0.0 | 0.0 | 0.00 | 0.00 | 0.00 | 95 | 1010.9 |
| 20260905024553 | 16 | 309 | 0.0 | 0.0 | 0.00 | 0.00 | 0.00 | 95 | 1010.8 |
| 20260905024028 | 16 | 0 | 0.0 | 0.0 | 0.00 | 0.00 | 0.00 | 95 | 1010.7 |
| 20260905023528 | 16 | 0 | 0.0 | 0.0 | 0.00 | 0.00 | 0.00 | 95 | 1010.7 |
| 20260905023051 | 16 | 0 | 0.0 | 0.0 | 0.00 | 0.00 | 0.00 | 95 | 1010.6 |
| 20260905022527 | 16 | 0 | 0.0 | 0.0 | 0.00 | 0.00 | 0.00 | 94 | 1010.6 |
| 20260905022030 | 16 | 0 | 0.0 | 0.0 | 0.00 | 0.00 | 0.00 | 94 | 1010.5 |
| 20260905021557 | 17 | 0 | 0.0 | 0.0 | 0.00 | 0.00 | 0.00 | 94 | 1010.6 |
| 20260905021028 | 17 | 0 | 0.0 | 0.0 | 0.00 | 0.00 | 0.00 | 94 | 1010.8 |
| 20260905020528 | 17 | 0 | 0.0 | 0.0 | 0.00 | 0.00 | 0.00 | 93 | 1010.7 |
| 20260905020052 | 17 | 0 | 0.0 | 0.0 | 0.00 | 0.00 | 0.00 | 93 | 1010.8 |
| 20260905015529 | 17 | 0 | 0.0 | 0.0 | 0.00 | 0.00 | 0.00 | 93 | 1011.0 |
| 20260905015030 | 17 | 0 | 0.0 | 0.0 | 0.00 | 0.00 | 0.00 | 92 | 1010.9 |
| 20260905014545 | 17 | 0 | 0.0 | 0.0 | 0.00 | 0.00 | 0.00 | 92 | 1010.9 |
| 20260905014030 | 17 | 0 | 0.0 | 0.0 | 0.00 | 0.00 | 0.00 | 92 | 1010.9 |
| 20260905013529 | 17 | 0 | 0.0 | 0.0 | 0.00 | 0.00 | 0.00 | 92 | 1010.9 |
| 20260905013044 | 17 | 0 | 0.0 | 0.0 | 0.00 | 0.00 | 0.00 | 91 | 1011.1 |
| 20260905012527 | 18 | 0 | 0.0 | 0.0 | 0.00 | 0.00 | 0.00 | 91 | 1010.9 |
| 20260905012031 | 18 | 0 | 0.0 | 0.0 | 0.00 | 0.00 | 0.00 | 91 | 1011.0 |
| 20260905011556 | 18 | 0 | 0.0 | 0.0 | 0.00 | 0.00 | 0.00 | 91 | 1011.0 |
| 20260905011030 | 18 | 0 | 0.0 | 0.0 | 0.00 | 0.00 | 0.00 | 90 | 1010.9 |
| 20260905010531 | 18 | 0 | 0.0 | 0.0 | 0.00 | 0.00 | 0.00 | 90 | 1011.0 |
| 20260905010051 | 18 | 0 | 0.0 | 0.0 | 0.00 | 0.00 | 0.00 | 90 | 1011.0 |
| 20260905005530 | 18 | 0 | 0.0 | 0.0 | 0.00 | 0.00 | 0.00 | 89 | 1010.9 |
| 20260905005030 | 18 | 0 | 0.0 | 0.0 | 0.00 | 0.00 | 0.00 | 89 | 1011.0 |
| 20260905004550 | 19 | 0 | 0.0 | 0.0 | 0.00 | 0.00 | 0.00 | 89 | 1010.9 |
| 20260905004030 | 19 | 0 | 0.0 | 0.0 | 0.00 | 0.00 | 0.00 | 89 | 1011.1 |
| 20260905003531 | 19 | 0 | 0.0 | 0.0 | 0.00 | 0.00 | 0.00 | 88 | 1011.0 |
| 20260905003046 | 19 | 0 | 0.0 | 0.0 | 0.00 | 0.00 | 0.00 | 88 | 1010.8 |
| 20260905002529 | 20 | 0 | 0.0 | 0.0 | 0.00 | 0.00 | 0.00 | 87 | 1010.7 |
| 20260905002032 | 20 | 0 | 0.0 | 0.0 | 0.00 | 0.00 | 0.00 | 87 | 1010.7 |
| 20260905001601 | 20 | 0 | 0.0 | 0.0 | 0.00 | 0.00 | 0.00 | 86 | 1010.6 |
| 20260905001033 | 20 | 0 | 0.0 | 0.0 | 0.00 | 0.00 | 0.00 | 85 | 1010.6 |
| 20260905000531 | 20 | 0 | 0.0 | 0.0 | 0.00 | 0.00 | 0.00 | 85 | 1010.4 |
| 20260904235529 | 21 | 0 | 0.0 | 1.6 | 0.00 | 0.00 | 0.00 | 81 | 1010.3 |
| 20260904235032 | 21 | 0 | 0.0 | 4.8 | 0.00 | 0.00 | 0.00 | 80 | 1010.2 |
| 20260904234546 | 21 | 0 | 0.0 | 4.8 | 0.00 | 0.00 | 0.00 | 81 | 1010.3 |
| 20260904234029 | 21 | 0 | 0.0 | 1.6 | 0.00 | 0.00 | 0.00 | 82 | 1010.4 |
| 20260904233530 | 20 | 0 | 0.0 | 1.6 | 0.00 | 0.00 | 0.00 | 82 | 1010.3 |
| 20260904233114 | 20 | 0 | 0.0 | 0.0 | 0.00 | 0.00 | 0.00 | 84 | 1010.3 |
| 20260904232531 | 21 | 0 | 0.0 | 0.0 | 0.00 | 0.00 | 0.00 | 84 | 1010.3 |
| 20260904232031 | 21 | 0 | 0.0 | 0.0 | 0.00 | 0.00 | 0.00 | 84 | 1010.4 |
| 20260904231602 | 21 | 0 | 0.0 | 0.0 | 0.00 | 0.00 | 0.00 | 82 | 1010.2 |
| 20260904231031 | 21 | 0 | 0.0 | 0.0 | 0.00 | 0.00 | 0.00 | 82 | 1010.3 |
| 20260904230531 | 21 | 0 | 0.0 | 0.0 | 0.00 | 0.00 | 0.00 | 83 | 1010.2 |
| 20260904230051 | 22 | 0 | 0.0 | 0.0 | 0.00 | 0.00 | 0.00 | 82 | 1010.1 |
| 20260904225529 | 22 | 0 | 0.0 | 0.0 | 0.00 | 0.00 | 0.00 | 81 | 1010.1 |
| 20260904225032 | 22 | 0 | 0.0 | 1.6 | 0.00 | 0.00 | 0.00 | 81 | 1010.2 |
| 20260904224608 | 23 | 0 | 0.0 | 1.6 | 0.00 | 0.00 | 0.00 | 79 | 1010.2 |
| 20260904224030 | 23 | 0 | 0.0 | 1.6 | 0.00 | 0.00 | 0.00 | 78 | 1010.3 |
| 20260904223529 | 23 | 0 | 0.0 | 1.6 | 0.00 | 0.00 | 0.00 | 77 | 1010.1 |
| 20260904223056 | 23 | 0 | 0.0 | 1.6 | 0.00 | 0.00 | 0.00 | 75 | 1009.9 |
| 20260904222531 | 24 | 0 | 0.0 | 1.6 | 0.00 | 0.00 | 0.00 | 72 | 1010.0 |
| 20260904222029 | 25 | 0 | 0.0 | 1.6 | 0.00 | 0.00 | 0.00 | 69 | 1010.0 |
| 20260904221555 | 25 | 309 | 0.0 | 1.6 | 0.00 | 0.00 | 0.00 | 66 | 1009.9 |
| 20260904221029 | 25 | 269 | 0.0 | 6.4 | 0.00 | 0.00 | 0.00 | 64 | 1009.9 |
| 20260904220530 | 26 | 0 | 0.0 | 6.4 | 0.00 | 0.00 | 0.00 | 64 | 1010.0 |
| 20260904220053 | 26 | 26 | 1.6 | 6.4 | 0.00 | 0.00 | 0.00 | 62 | 1009.9 |
| 20260904215528 | 26 | 290 | 1.6 | 8.0 | 0.00 | 0.00 | 0.00 | 61 | 1009.8 |
| 20260904215032 | 26 | 281 | 3.2 | 8.0 | 0.00 | 0.00 | 0.00 | 60 | 1009.9 |
| 20260904214602 | 26 | 303 | 3.2 | 8.0 | 0.00 | 0.00 | 0.00 | 61 | 1010.0 |
| 20260904214027 | 26 | 310 | 0.0 | 4.8 | 0.00 | 0.00 | 0.00 | 62 | 1010.1 |
| 20260904213533 | 26 | 19 | 1.6 | 6.4 | 0.00 | 0.00 | 0.00 | 60 | 1010.1 |
| 20260904213056 | 25 | 306 | 1.6 | 6.4 | 0.00 | 0.00 | 0.00 | 59 | 1010.1 |
| 20260904212532 | 25 | 320 | 3.2 | 6.4 | 0.00 | 0.00 | 0.00 | 58 | 1010.1 |
| 20260904212028 | 25 | 326 | 1.6 | 8.0 | 0.00 | 0.00 | 0.00 | 58 | 1010.1 |
| 20260904211552 | 26 | 37 | 1.6 | 9.7 | 0.00 | 0.00 | 0.00 | 60 | 1010.1 |
| 20260904211031 | 26 | 284 | 3.2 | 9.7 | 0.00 | 0.00 | 0.00 | 57 | 1010.2 |
| 20260904210530 | 26 | 287 | 3.2 | 9.7 | 0.00 | 0.00 | 0.00 | 56 | 1010.1 |
| 20260904205531 | 26 | 333 | 4.8 | 19.3 | 0.00 | 0.00 | 0.00 | 55 | 1010.1 |
| 20260904205029 | 26 | 333 | 8.0 | 19.3 | 0.00 | 0.00 | 0.00 | 54 | 1010.1 |
| 20260904204557 | 26 | 298 | 4.8 | 17.7 | 0.00 | 0.00 | 0.00 | 56 | 1010.1 |
| 20260904204034 | 26 | 326 | 3.2 | 11.3 | 0.00 | 0.00 | 0.00 | 57 | 1010.1 |
| 20260904203530 | 26 | 6 | 3.2 | 8.0 | 0.00 | 0.00 | 0.00 | 57 | 1010.1 |
| 20260904203052 | 26 | 312 | 3.2 | 11.3 | 0.00 | 0.00 | 0.00 | 56 | 1010.0 |
| 20260904202530 | 27 | 342 | 3.2 | 11.3 | 0.00 | 0.00 | 0.00 | 55 | 1010.0 |
| 20260904202029 | 27 | 230 | 3.2 | 11.3 | 0.00 | 0.00 | 0.00 | 56 | 1009.9 |
| 20260904201546 | 27 | 310 | 3.2 | 14.5 | 0.00 | 0.00 | 0.00 | 57 | 1010.1 |
| 20260904201029 | 27 | 53 | 3.2 | 14.5 | 0.00 | 0.00 | 0.00 | 56 | 1010.1 |
| 20260904200529 | 27 | 340 | 4.8 | 14.5 | 0.00 | 0.00 | 0.00 | 56 | 1010.1 |
| 20260904200054 | 27 | 338 | 4.8 | 12.9 | 0.00 | 0.00 | 0.00 | 56 | 1010.1 |
| 20260904195531 | 27 | 20 | 4.8 | 16.1 | 0.00 | 0.00 | 0.00 | 58 | 1010.1 |
| 20260904195030 | 27 | 281 | 8.0 | 16.1 | 0.00 | 0.00 | 0.00 | 55 | 1010.2 |
| 20260904194551 | 27 | 25 | 6.4 | 12.9 | 0.00 | 0.00 | 0.00 | 57 | 1010.1 |
| 20260904194030 | 27 | 338 | 4.8 | 12.9 | 0.00 | 0.00 | 0.00 | 57 | 1010.2 |
| 20260904193530 | 26 | 304 | 4.8 | 12.9 | 0.00 | 0.00 | 0.00 | 59 | 1010.2 |
| 20260904193100 | 26 | 328 | 4.8 | 16.1 | 0.00 | 0.00 | 0.00 | 57 | 1010.2 |
| 20260904192530 | 26 | 314 | 4.8 | 16.1 | 0.00 | 0.00 | 0.00 | 57 | 1010.1 |
| 20260904192031 | 27 | 173 | 6.4 | 11.3 | 0.00 | 0.00 | 0.00 | 55 | 1010.3 |
| 20260904191555 | 27 | 308 | 3.2 | 11.3 | 0.00 | 0.00 | 0.00 | 55 | 1010.3 |
| 20260904191031 | 27 | 8 | 6.4 | 11.3 | 0.00 | 0.00 | 0.00 | 53 | 1010.3 |
| 20260904190533 | 27 | 319 | 4.8 | 12.9 | 0.00 | 0.00 | 0.00 | 54 | 1010.2 |
| 20260904190052 | 27 | 14 | 3.2 | 12.9 | 0.00 | 0.00 | 0.00 | 57 | 1010.1 |
| 20260904185530 | 26 | 355 | 4.8 | 12.9 | 0.00 | 0.00 | 0.00 | 57 | 1010.1 |
| 20260904185031 | 26 | 278 | 4.8 | 12.9 | 0.00 | 0.00 | 0.00 | 54 | 1010.1 |
| 20260904184553 | 27 | 299 | 3.2 | 16.1 | 0.00 | 0.00 | 0.00 | 53 | 1010.4 |
| 20260904184031 | 27 | 246 | 4.8 | 16.1 | 0.00 | 0.00 | 0.00 | 53 | 1010.4 |
| 20260904183532 | 27 | 300 | 6.4 | 16.1 | 0.00 | 0.00 | 0.00 | 54 | 1010.3 |
| 20260904183054 | 27 | 316 | 4.8 | 19.3 | 0.00 | 0.00 | 0.00 | 54 | 1010.5 |
| 20260904182531 | 27 | 290 | 8.0 | 19.3 | 0.00 | 0.00 | 0.00 | 53 | 1010.4 |
| 20260904182033 | 27 | 322 | 6.4 | 20.9 | 0.00 | 0.00 | 0.00 | 52 | 1010.7 |
| 20260904181552 | 27 | 277 | 8.0 | 20.9 | 0.00 | 0.00 | 0.00 | 55 | 1010.7 |
| 20260904181030 | 27 | 311 | 6.4 | 14.5 | 0.00 | 0.00 | 0.00 | 55 | 1010.6 |
| 20260904180534 | 27 | 320 | 3.2 | 17.7 | 0.00 | 0.00 | 0.00 | 53 | 1010.6 |
| 20260904180103 | 27 | 345 | 3.2 | 17.7 | 0.00 | 0.00 | 0.00 | 54 | 1010.5 |
| 20260904175534 | 27 | 298 | 6.4 | 17.7 | 0.00 | 0.00 | 0.00 | 55 | 1010.5 |
| 20260904175030 | 27 | 352 | 4.8 | 17.7 | 0.00 | 0.00 | 0.00 | 56 | 1010.5 |
| 20260904174556 | 27 | 278 | 6.4 | 17.7 | 0.00 | 0.00 | 0.00 | 54 | 1010.4 |
| 20260904174028 | 27 | 287 | 4.8 | 11.3 | 0.00 | 0.00 | 0.00 | 57 | 1010.4 |
| 20260904173531 | 27 | 335 | 4.8 | 12.9 | 0.00 | 0.00 | 0.00 | 54 | 1010.5 |
| 20260904173056 | 27 | 288 | 3.2 | 12.9 | 0.00 | 0.00 | 0.00 | 57 | 1010.4 |
| 20260904172530 | 27 | 308 | 6.4 | 19.3 | 0.00 | 0.00 | 0.00 | 56 | 1010.4 |
| 20260904172031 | 27 | 318 | 8.0 | 19.3 | 0.00 | 0.00 | 0.00 | 55 | 1010.5 |
| 20260904171551 | 27 | 324 | 6.4 | 14.5 | 0.00 | 0.00 | 0.00 | 54 | 1010.6 |
| 20260904171030 | 27 | 345 | 4.8 | 11.3 | 0.00 | 0.00 | 0.00 | 57 | 1010.6 |
| 20260904170532 | 27 | 314 | 4.8 | 14.5 | 0.00 | 0.00 | 0.00 | 57 | 1010.7 |
| 20260904170047 | 27 | 311 | 4.8 | 17.7 | 0.00 | 0.00 | 0.00 | 57 | 1010.7 |
| 20260904165530 | 26 | 311 | 4.8 | 19.3 | 0.00 | 0.00 | 0.00 | 54 | 1010.7 |
| 20260904165030 | 26 | 274 | 8.0 | 19.3 | 0.00 | 0.00 | 0.00 | 55 | 1010.7 |
| 20260904164553 | 26 | 349 | 6.4 | 16.1 | 0.00 | 0.00 | 0.00 | 58 | 1010.9 |
| 20260904164027 | 26 | 333 | 6.4 | 12.9 | 0.00 | 0.00 | 0.00 | 58 | 1010.7 |
| 20260904163530 | 26 | 238 | 6.4 | 12.9 | 0.00 | 0.00 | 0.00 | 56 | 1010.7 |
| 20260904163052 | 26 | 310 | 4.8 | 16.1 | 0.00 | 0.00 | 0.00 | 58 | 1010.9 |
| 20260904162533 | 26 | 356 | 4.8 | 16.1 | 0.00 | 0.00 | 0.00 | 59 | 1010.8 |
| 20260904162030 | 26 | 299 | 4.8 | 12.9 | 0.00 | 0.00 | 0.00 | 60 | 1010.8 |
| 20260904161558 | 26 | 41 | 4.8 | 12.9 | 0.00 | 0.00 | 0.00 | 59 | 1010.8 |
| 20260904161033 | 26 | 248 | 4.8 | 14.5 | 0.00 | 0.00 | 0.00 | 62 | 1010.8 |
| 20260904160534 | 26 | 354 | 3.2 | 14.5 | 0.00 | 0.00 | 0.00 | 63 | 1010.9 |
| 20260904160056 | 26 | 345 | 4.8 | 17.7 | 0.00 | 0.00 | 0.00 | 61 | 1011.3 |
| 20260904155529 | 26 | 285 | 4.8 | 17.7 | 0.00 | 0.00 | 0.00 | 67 | 1011.2 |
| 20260904155029 | 26 | 53 | 8.0 | 17.7 | 0.00 | 0.00 | 0.00 | 62 | 1011.2 |
| 20260904154554 | 26 | 340 | 8.0 | 17.7 | 0.00 | 0.00 | 0.00 | 63 | 1011.0 |
| 20260904154030 | 26 | 350 | 6.4 | 16.1 | 0.00 | 0.00 | 0.00 | 63 | 1011.3 |
| 20260904153528 | 26 | 275 | 1.6 | 14.5 | 0.00 | 0.00 | 0.00 | 70 | 1011.3 |
| 20260904153053 | 25 | 306 | 3.2 | 14.5 | 0.00 | 0.00 | 0.00 | 66 | 1011.3 |
| 20260904152529 | 25 | 308 | 6.4 | 14.5 | 0.00 | 0.00 | 0.00 | 68 | 1011.4 |
| 20260904152031 | 25 | 9 | 6.4 | 12.9 | 0.00 | 0.00 | 0.00 | 69 | 1011.6 |
| 20260904151551 | 25 | 255 | 4.8 | 11.3 | 0.00 | 0.00 | 0.00 | 72 | 1011.5 |
| 20260904151030 | 25 | 286 | 3.2 | 12.9 | 0.00 | 0.00 | 0.00 | 72 | 1011.6 |
| 20260904150530 | 24 | 13 | 4.8 | 12.9 | 0.00 | 0.00 | 0.00 | 76 | 1011.5 |
| 20260904150045 | 24 | 250 | 0.0 | 4.8 | 0.00 | 0.00 | 0.00 | 81 | 1011.5 |
| 20260904145529 | 23 | 0 | 0.0 | 8.0 | 0.00 | 0.00 | 0.00 | 79 | 1011.5 |
| 20260904145029 | 23 | 0 | 0.0 | 8.0 | 0.00 | 0.00 | 0.00 | 76 | 1011.6 |
| 20260904144600 | 23 | 312 | 0.0 | 4.8 | 0.00 | 0.00 | 0.00 | 81 | 1011.6 |
| 20260904144031 | 23 | 51 | 0.0 | 4.8 | 0.00 | 0.00 | 0.00 | 81 | 1011.4 |
| 20260904143530 | 23 | 0 | 0.0 | 4.8 | 0.00 | 0.00 | 0.00 | 80 | 1011.6 |
| 20260904143059 | 23 | 314 | 1.6 | 4.8 | 0.00 | 0.00 | 0.00 | 83 | 1011.6 |
| 20260904142527 | 22 | 80 | 1.6 | 4.8 | 0.00 | 0.00 | 0.00 | 86 | 1011.7 |
| 20260904142027 | 22 | 299 | 0.0 | 4.8 | 0.00 | 0.00 | 0.00 | 88 | 1011.7 |
| 20260904141554 | 22 | 304 | 0.0 | 6.4 | 0.00 | 0.00 | 0.00 | 93 | 1011.8 |
| 20260904141030 | 22 | 0 | 1.6 | 9.7 | 0.00 | 0.00 | 0.00 | 93 | 1011.6 |
| 20260904140529 | 22 | 0 | 1.6 | 9.7 | 0.00 | 0.00 | 0.00 | 92 | 1011.6 |
| 20260904140049 | 22 | 304 | 1.6 | 11.3 | 0.00 | 0.00 | 0.00 | 91 | 1011.7 |
| 20260904135530 | 22 | 336 | 3.2 | 11.3 | 0.00 | 0.00 | 0.00 | 91 | 1011.5 |
| 20260904135029 | 21 | 338 | 3.2 | 9.7 | 0.00 | 0.00 | 0.00 | 91 | 1011.6 |
| 20260904134559 | 21 | 0 | 0.0 | 6.4 | 0.00 | 0.00 | 0.00 | 93 | 1011.6 |
| 20260904134031 | 21 | 16 | 1.6 | 8.0 | 0.00 | 0.00 | 0.00 | 94 | 1011.6 |
| 20260904133535 | 21 | 13 | 3.2 | 8.0 | 0.00 | 0.00 | 0.00 | 95 | 1011.4 |
| 20260904133056 | 21 | 120 | 1.6 | 8.0 | 0.00 | 0.00 | 0.00 | 97 | 1011.6 |
| 20260904132527 | 20 | 72 | 1.6 | 8.0 | 0.00 | 0.00 | 0.00 | 98 | 1011.7 |
| 20260904132028 | 20 | 249 | 0.0 | 6.4 | 0.00 | 0.00 | 0.00 | 100 | 1011.5 |
| 20260904131553 | 20 | 291 | 1.6 | 8.0 | 0.00 | 0.00 | 0.00 | 100 | 1011.7 |
| 20260904131030 | 20 | 310 | 3.2 | 8.0 | 0.00 | 0.00 | 0.00 | 100 | 1011.6 |
| 20260904130530 | 20 | 133 | 1.6 | 6.4 | 0.00 | 0.00 | 0.00 | 100 | 1011.5 |
| 20260904130047 | 19 | 0 | 1.6 | 6.4 | 0.00 | 0.00 | 0.00 | 100 | 1011.5 |
| 20260904125529 | 19 | 0 | 1.6 | 6.4 | 0.00 | 0.00 | 0.00 | 100 | 1011.7 |
| 20260904125029 | 18 | 354 | 0.0 | 4.8 | 0.00 | 0.00 | 0.00 | 100 | 1011.5 |
| 20260904124544 | 18 | 251 | 0.0 | 4.8 | 0.00 | 0.00 | 0.00 | 100 | 1011.7 |
| 20260904124028 | 18 | 19 | 0.0 | 3.2 | 0.00 | 0.00 | 0.00 | 100 | 1011.6 |
| 20260904123530 | 18 | 0 | 0.0 | 0.0 | 0.00 | 0.00 | 0.00 | 100 | 1011.7 |
| 20260904123053 | 18 | 0 | 0.0 | 0.0 | 0.00 | 0.00 | 0.00 | 100 | 1011.8 |
| 20260904122531 | 17 | 0 | 0.0 | 0.0 | 0.00 | 0.00 | 0.00 | 100 | 1011.8 |
| 20260904122030 | 17 | 0 | 0.0 | 0.0 | 0.00 | 0.00 | 0.00 | 100 | 1011.8 |
| 20260904121553 | 17 | 0 | 0.0 | 0.0 | 0.00 | 0.00 | 0.00 | 100 | 1011.8 |
| 20260904121030 | 17 | 0 | 0.0 | 0.0 | 0.00 | 0.00 | 0.00 | 100 | 1011.7 |
| 20260904120531 | 17 | 0 | 0.0 | 0.0 | 0.00 | 0.00 | 0.00 | 100 | 1011.8 |
| 20260904120048 | 17 | 0 | 0.0 | 0.0 | 0.00 | 0.00 | 0.00 | 100 | 1011.7 |
| 20260904115529 | 17 | 0 | 0.0 | 0.0 | 0.00 | 0.00 | 0.00 | 100 | 1011.7 |
| 20260904115032 | 16 | 0 | 0.0 | 0.0 | 0.00 | 0.00 | 0.00 | 100 | 1011.6 |
| 20260904114545 | 16 | 0 | 0.0 | 0.0 | 0.00 | 0.00 | 0.00 | 100 | 1011.6 |
| 20260904114031 | 16 | 0 | 0.0 | 0.0 | 0.00 | 0.00 | 0.00 | 100 | 1011.5 |
| 20260904113530 | 16 | 0 | 0.0 | 0.0 | 0.00 | 0.00 | 0.00 | 100 | 1011.3 |
| 20260904113045 | 16 | 0 | 0.0 | 0.0 | 0.00 | 0.00 | 0.00 | 99 | 1011.5 |
| 20260904112527 | 16 | 0 | 0.0 | 0.0 | 0.00 | 0.00 | 0.00 | 99 | 1011.3 |
| 20260904112029 | 16 | 0 | 0.0 | 0.0 | 0.00 | 0.00 | 0.00 | 99 | 1011.3 |
| 20260904111546 | 16 | 0 | 0.0 | 0.0 | 0.00 | 0.00 | 0.00 | 99 | 1011.3 |
| 20260904111027 | 16 | 0 | 0.0 | 0.0 | 0.00 | 0.00 | 0.00 | 99 | 1011.2 |
| 20260904110530 | 16 | 0 | 0.0 | 0.0 | 0.00 | 0.00 | 0.00 | 99 | 1011.1 |
| 20260904110051 | 16 | 0 | 0.0 | 0.0 | 0.00 | 0.00 | 0.00 | 99 | 1011.1 |
| 20260904105531 | 16 | 0 | 0.0 | 0.0 | 0.00 | 0.00 | 0.00 | 99 | 1011.1 |
| 20260904105029 | 16 | 0 | 0.0 | 0.0 | 0.00 | 0.00 | 0.00 | 99 | 1011.1 |
| 20260904104547 | 16 | 0 | 0.0 | 0.0 | 0.00 | 0.00 | 0.00 | 99 | 1011.0 |
| 20260904104030 | 16 | 0 | 0.0 | 0.0 | 0.00 | 0.00 | 0.00 | 99 | 1011.1 |
| 20260904103529 | 16 | 0 | 0.0 | 0.0 | 0.00 | 0.00 | 0.00 | 99 | 1011.2 |
| 20260904103044 | 16 | 0 | 0.0 | 0.0 | 0.00 | 0.00 | 0.00 | 99 | 1011.1 |
| 20260904102530 | 16 | 0 | 0.0 | 0.0 | 0.00 | 0.00 | 0.00 | 99 | 1011.2 |
| 20260904102029 | 16 | 0 | 0.0 | 0.0 | 0.00 | 0.00 | 0.00 | 99 | 1011.1 |
| 20260904101552 | 16 | 0 | 0.0 | 0.0 | 0.00 | 0.00 | 0.00 | 99 | 1011.1 |
| 20260904101031 | 16 | 0 | 0.0 | 0.0 | 0.00 | 0.00 | 0.00 | 99 | 1011.0 |
| 20260904100530 | 16 | 0 | 0.0 | 0.0 | 0.00 | 0.00 | 0.00 | 99 | 1010.9 |
| 20260904100053 | 16 | 0 | 0.0 | 0.0 | 0.00 | 0.00 | 0.00 | 99 | 1010.9 |
| 20260904095530 | 16 | 0 | 0.0 | 0.0 | 0.00 | 0.00 | 0.00 | 99 | 1010.8 |
| 20260904095030 | 16 | 0 | 0.0 | 0.0 | 0.00 | 0.00 | 0.00 | 99 | 1010.9 |
| 20260904094546 | 16 | 0 | 0.0 | 0.0 | 0.00 | 0.00 | 0.00 | 99 | 1010.7 |
| 20260904094029 | 17 | 0 | 0.0 | 0.0 | 0.00 | 0.00 | 0.00 | 99 | 1010.7 |
| 20260904093530 | 17 | 0 | 0.0 | 0.0 | 0.00 | 0.00 | 0.00 | 99 | 1010.7 |
| 20260904093052 | 17 | 0 | 0.0 | 0.0 | 0.00 | 0.00 | 0.00 | 99 | 1010.7 |
| 20260904092527 | 17 | 0 | 0.0 | 0.0 | 0.00 | 0.00 | 0.00 | 99 | 1010.7 |
| 20260904092031 | 17 | 0 | 0.0 | 0.0 | 0.00 | 0.00 | 0.00 | 99 | 1010.8 |
| 20260904091556 | 17 | 0 | 0.0 | 0.0 | 0.00 | 0.00 | 0.00 | 99 | 1010.8 |
| 20260904091031 | 17 | 0 | 0.0 | 0.0 | 0.00 | 0.00 | 0.00 | 99 | 1010.6 |
| 20260904090530 | 17 | 0 | 0.0 | 0.0 | 0.00 | 0.00 | 0.00 | 99 | 1010.5 |
| 20260904090046 | 17 | 0 | 0.0 | 0.0 | 0.00 | 0.00 | 0.00 | 99 | 1010.6 |
| 20260904085529 | 17 | 0 | 0.0 | 0.0 | 0.00 | 0.00 | 0.00 | 99 | 1010.7 |
| 20260904085031 | 17 | 0 | 0.0 | 0.0 | 0.00 | 0.00 | 0.00 | 99 | 1010.6 |
| 20260904084557 | 17 | 0 | 0.0 | 0.0 | 0.00 | 0.00 | 0.00 | 99 | 1010.7 |
| 20260904084029 | 17 | 0 | 0.0 | 0.0 | 0.00 | 0.00 | 0.00 | 99 | 1010.7 |
| 20260904083531 | 17 | 0 | 0.0 | 0.0 | 0.00 | 0.00 | 0.00 | 99 | 1010.6 |
| 20260904083052 | 17 | 0 | 0.0 | 0.0 | 0.00 | 0.00 | 0.00 | 99 | 1010.4 |
| 20260904082530 | 17 | 0 | 0.0 | 0.0 | 0.00 | 0.00 | 0.00 | 99 | 1010.5 |
| 20260904082032 | 17 | 0 | 0.0 | 0.0 | 0.00 | 0.00 | 0.00 | 99 | 1010.5 |
| 20260904081545 | 17 | 0 | 0.0 | 0.0 | 0.00 | 0.00 | 0.00 | 99 | 1010.4 |
| 20260904081029 | 17 | 0 | 0.0 | 0.0 | 0.00 | 0.00 | 0.00 | 99 | 1010.4 |
| 20260904080529 | 17 | 0 | 0.0 | 0.0 | 0.00 | 0.00 | 0.00 | 99 | 1010.4 |
| 20260904080053 | 17 | 0 | 0.0 | 0.0 | 0.00 | 0.00 | 0.00 | 99 | 1010.4 |
| 20260904075531 | 17 | 0 | 0.0 | 0.0 | 0.00 | 0.00 | 0.00 | 99 | 1010.5 |
| 20260904075032 | 17 | 0 | 0.0 | 0.0 | 0.00 | 0.00 | 0.00 | 99 | 1010.4 |
| 20260904074601 | 17 | 0 | 0.0 | 0.0 | 0.00 | 0.00 | 0.00 | 99 | 1010.5 |
| 20260904074033 | 17 | 0 | 0.0 | 0.0 | 0.00 | 0.00 | 0.00 | 99 | 1010.7 |
| 20260904073529 | 17 | 0 | 0.0 | 0.0 | 0.00 | 0.00 | 0.00 | 99 | 1010.5 |
| 20260904073047 | 17 | 0 | 0.0 | 0.0 | 0.00 | 0.00 | 0.00 | 99 | 1010.8 |
| 20260904072529 | 17 | 0 | 0.0 | 0.0 | 0.00 | 0.00 | 0.00 | 99 | 1010.8 |
| 20260904072029 | 17 | 0 | 0.0 | 0.0 | 0.00 | 0.00 | 0.00 | 99 | 1011.1 |
| 20260904071623 | 17 | 0 | 0.0 | 0.0 | 0.00 | 0.00 | 0.00 | 99 | 1011.2 |
| 20260904071032 | 17 | 0 | 0.0 | 0.0 | 0.00 | 0.00 | 0.00 | 99 | 1011.2 |
| 20260904070527 | 17 | 0 | 0.0 | 0.0 | 0.00 | 0.00 | 0.00 | 99 | 1011.2 |
| 20260904070141 | 17 | 0 | 0.0 | 0.0 | 0.00 | 0.00 | 0.00 | 99 | 1011.3 |
| 20260904070106 | 17 | 0 | 0.0 | 0.0 | 0.00 | 0.00 | 0.00 | 99 | 1011.3 |
| 20260904065527 | 17 | 0 | 0.0 | 0.0 | 0.00 | 0.08 | 0.00 | 99 | 1011.4 |
| 20260904065030 | 17 | 0 | 0.0 | 0.0 | 0.00 | 0.08 | 0.00 | 99 | 1011.2 |
| 20260904064604 | 17 | 0 | 0.0 | 0.0 | 0.00 | 0.08 | 0.00 | 99 | 1011.1 |
| 20260904064030 | 17 | 0 | 0.0 | 0.0 | 0.00 | 0.08 | 0.00 | 99 | 1011.1 |
| 20260904063531 | 17 | 0 | 0.0 | 0.0 | 0.00 | 0.08 | 0.00 | 99 | 1011.1 |
| 20260904063051 | 17 | 0 | 0.0 | 0.0 | 0.00 | 0.08 | 0.00 | 99 | 1011.3 |
| 20260904062529 | 17 | 0 | 0.0 | 0.0 | 0.00 | 0.08 | 0.00 | 99 | 1011.2 |
| 20260904062030 | 17 | 0 | 0.0 | 0.0 | 0.00 | 0.08 | 0.00 | 99 | 1011.3 |
| 20260904061545 | 17 | 0 | 0.0 | 0.0 | 0.00 | 0.08 | 0.00 | 99 | 1011.4 |
| 20260904061029 | 17 | 0 | 0.0 | 0.0 | 0.00 | 0.08 | 0.00 | 99 | 1011.2 |
| 20260904060529 | 17 | 0 | 0.0 | 0.0 | 0.00 | 0.08 | 0.00 | 99 | 1011.3 |
| 20260904060051 | 17 | 0 | 0.0 | 0.0 | 0.00 | 0.08 | 0.00 | 99 | 1011.4 |